GEFSGL_con_cape1000_366.txt.gz
Probability
29 29 32 29 32 35 32 26 19 19 16 19 19 23 26 23 16 10 13 13 13 10 10 10 10 6 6 3 3 3 3 3 3 6 3 3 3 6 0 3 3 6 10
32 35 35 35 32 32 32 29 29 23 16 19 16 19 19 13 6 6 10 13 13 13 10 13 10 6 3 3 3 6 6 3 3 6 3 3 6 0 0 3 6 10 6
29 39 32 32 23 23 29 19 23 19 16 16 16 19 19 16 10 10 13 13 13 16 13 13 10 6 6 6 6 6 3 3 3 3 3 3 3 3 6 6 3 3 3
29 35 29 29 16 13 19 19 19 19 19 19 16 13 13 13 10 10 13 10 10 6 6 10 6 6 6 6 6 6 6 6 6 3 3 3 3 0 0 3 0 0 3
23 29 26 13 13 13 13 10 10 13 13 13 13 16 16 13 10 10 3 6 0 3 3 3 3 3 3 3 6 3 3 3 3 3 3 3 3 0 0 0 0 0 6
19 19 16 10 10 10 6 10 13 13 16 16 16 16 16 10 13 13 6 3 3 3 3 3 3 6 10 6 3 0 0 0 3 3 6 3 6 3 3 3 3 3 3
16 16 13 16 13 13 13 13 13 13 13 10 6 10 10 10 10 10 3 3 3 3 3 3 3 6 0 0 0 0 0 0 0 3 3 3 3 6 6 3 3 3 3
13 13 10 13 13 13 13 13 10 6 6 6 6 6 10 10 6 3 3 3 0 0 0 0 0 0 0 0 0 0 0 0 0 0 0 0 3 3 3 3 6 3 3
13 10 10 13 10 6 6 6 3 6 6 6 3 6 6 3 3 0 3 3 3 3 3 0 0 0 0 0 0 0 0 0 0 0 0 0 0 0 0 0 0 3 6
13 10 10 6 6 6 3 3 3 3 3 6 6 3 0 3 3 3 0 0 3 3 3 3 3 0 0 0 0 0 0 0 3 3 3 0 0 0 0 0 0 3 6
10 10 10 0 0 3 3 3 0 0 0 0 6 3 3 3 3 3 0 0 0 0 0 3 3 0 0 0 0 0 0 0 3 3 3 3 3 3 3 0 0 0 6
6 3 0 0 0 0 0 0 0 0 0 0 0 0 0 3 3 0 0 0 0 0 0 0 0 0 0 0 0 0 0 0 0 0 3 3 6 6 6 6 6 3 6
0 0 0 0 0 0 0 0 0 0 0 0 0 0 0 3 3 0 0 0 0 0 0 0 0 0 0 0 0 0 0 0 0 0 0 3 3 3 3 3 6 6 6
0 0 0 3 3 0 0 0 0 0 0 0 0 3 3 3 3 0 0 0 0 0 0 0 0 0 0 0 0 0 0 0 0 0 0 3 3 3 3 3 6 6 6
0 0 3 0 0 0 0 0 0 0 0 0 3 3 3 3 3 0 0 0 0 0 0 0 0 0 0 0 0 0 0 0 0 3 3 3 3 3 3 6 6 6 6
0 0 0 0 0 0 0 0 0 0 0 0 0 0 0 0 0 0 0 0 0 0 0 0 0 0 0 0 0 0 0 0 0 0 0 3 3 3 3 3 0 0 3
0 0 0 0 0 0 0 0 0 0 0 0 0 0 0 0 0 0 0 0 0 0 0 0 0 0 0 0 0 0 0 0 0 0 0 0 0 0 0 0 0 0 0
0 0 0 0 0 0 3 0 0 0 0 0 0 0 0 0 0 0 0 0 0 0 0 0 0 0 0 0 0 0 0 0 0 0 0 0 0 0 0 0 0 0 0
3 3 3 0 0 0 3 3 0 0 0 0 0 0 0 0 0 0 0 0 0 0 0 0 0 0 0 0 0 0 0 0 0 0 0 0 0 0 0 0 0 0 0
3 0 0 0 0 0 3 3 0 0 0 0 0 0 0 0 0 0 0 0 0 0 0 0 0 0 0 0 0 0 0 0 0 0 0 0 0 0 0 0 0 0 0
0 0 0 0 0 0 0 0 3 0 0 0 0 0 0 0 0 0 0 0 0 0 0 0 0 0 0 0 0 0 0 0 0 0 0 0 0 0 0 0 0 0 0
3 0 0 0 0 0 0 0 0 0 0 0 0 0 0 0 0 0 0 0 0 0 0 0 0 0 0 0 0 0 0 0 0 0 0 0 0 0 0 0 0 0 0
0 0 0 0 0 0 0 0 0 0 0 0 0 0 0 0 0 0 0 0 0 0 0 0 0 0 0 0 0 0 0 0 0 0 0 0 0 0 0 0 0 0 0
0 0 0 0 0 0 0 0 0 0 0 0 0 0 0 0 0 0 0 0 0 0 0 0 0 0 0 0 0 0 0 0 0 0 0 0 0 0 0 0 0 0 0
0 0 0 0 0 0 0 0 0 0 0 0 0 0 0 0 0 0 0 0 0 0 0 0 0 0 0 0 0 0 0 0 0 0 0 0 0 0 0 0 0 0 0
0 0 0 0 0 0 0 0 0 0 0 0 0 0 0 0 0 0 0 0 0 0 0 0 0 0 0 0 0 0 0 0 0 0 0 0 0 0 0 0 0 0 0

GEFSGL_con_cape1000_372.txt.gz
Probability
3 3 13 13 13 10 13 10 10 13 6 13 13 10 10 10 10 10 10 10 10 10 10 6 6 10 6 3 3 3 3 3 6 6 6 10 10 13 13 10 10 10 10
6 13 13 13 10 13 10 10 10 6 3 3 3 3 3 10 6 6 6 6 6 3 6 6 6 6 3 3 3 6 6 3 6 6 6 6 10 13 13 10 10 10 13
16 16 16 16 13 10 10 6 6 6 3 6 6 10 10 10 10 10 6 6 6 3 3 6 6 3 3 3 3 6 6 3 3 6 0 0 0 0 6 3 3 3 6
23 23 16 16 13 10 10 10 10 10 13 13 16 13 13 13 13 13 13 10 6 3 3 6 6 3 3 6 0 3 6 3 0 0 0 3 0 3 0 3 3 3 3
13 13 10 6 6 6 6 10 6 10 10 10 10 10 13 13 10 10 13 6 6 0 0 0 0 0 0 0 0 3 3 6 6 3 0 3 6 6 6 6 6 3 3
6 6 6 6 6 6 6 6 6 6 6 6 10 10 10 10 3 3 3 6 3 3 0 0 0 0 0 0 0 0 0 3 3 3 3 3 3 3 3 6 6 6 6
6 6 6 3 3 3 3 3 3 3 10 10 10 10 6 3 0 0 0 3 6 3 3 0 0 0 3 3 0 0 0 0 0 3 0 3 3 3 3 3 3 3 6
6 6 6 6 3 6 6 6 6 6 6 6 6 6 0 0 0 0 0 0 0 0 0 0 0 0 3 3 3 3 3 3 0 0 0 0 0 6 6 6 6 6 3
6 6 6 10 6 6 10 10 3 3 3 3 3 0 0 0 0 0 0 0 0 0 0 0 0 0 0 0 3 3 3 3 0 0 0 0 0 0 0 0 3 6 6
3 3 3 3 3 3 3 3 3 0 0 3 0 0 0 0 0 0 0 0 0 0 0 0 0 0 0 0 3 3 0 0 0 0 0 0 0 0 0 0 0 6 6
3 3 6 3 3 3 3 0 0 0 0 0 0 0 0 0 0 0 0 0 0 0 0 0 0 0 0 0 0 0 0 0 0 0 3 3 3 3 0 0 0 6 6
3 3 3 3 3 0 0 0 0 0 0 0 0 0 0 0 0 0 0 0 0 0 0 0 0 0 0 0 0 0 0 0 0 0 0 0 3 3 3 3 6 3 6
0 3 3 3 0 0 0 0 0 0 0 0 0 0 0 0 0 0 0 0 0 0 0 0 0 0 0 0 0 0 0 0 0 0 3 3 3 3 3 3 3 6 6
0 3 3 3 0 0 0 0 0 0 0 0 0 0 0 0 0 0 0 0 0 0 0 0 0 0 0 0 0 0 0 0 0 0 0 0 3 3 3 3 3 3 6
0 0 0 0 0 0 0 0 0 0 0 0 0 0 0 0 0 0 0 0 0 0 0 0 0 0 0 0 0 0 0 0 0 0 0 0 0 0 0 3 3 3 3
0 0 0 0 0 0 0 0 0 0 0 0 0 0 0 0 0 0 0 0 0 0 0 0 0 0 0 0 0 0 0 0 0 0 0 0 0 0 0 0 0 0 3
0 0 0 0 0 0 0 0 0 0 0 0 0 0 0 0 0 0 0 0 0 0 0 0 0 0 0 0 0 0 0 0 0 0 0 0 0 0 0 0 0 0 0
3 0 0 0 0 0 0 0 0 0 0 0 0 0 0 0 0 0 0 0 0 0 0 0 0 0 0 0 0 0 0 0 0 0 0 0 0 0 0 0 0 0 0
3 3 0 0 0 0 0 0 0 0 0 0 0 0 0 0 0 0 0 0 0 0 0 0 0 0 0 0 0 0 0 0 0 0 0 0 0 0 0 0 0 0 0
3 3 0 0 0 0 0 0 0 0 0 0 0 0 0 0 0 0 0 0 0 0 0 0 0 0 0 0 0 0 0 0 0 0 0 0 0 0 0 0 0 0 0
3 3 0 0 0 0 0 0 0 0 0 0 0 0 0 0 0 0 0 0 0 0 0 0 0 0 0 0 0 0 0 0 0 0 0 0 0 0 0 0 0 0 0
3 3 0 0 0 0 0 0 0 0 0 0 0 0 0 0 0 0 0 0 0 0 0 0 0 0 0 0 0 0 0 0 0 0 0 0 0 0 0 0 0 0 0
0 0 0 0 0 0 0 0 0 0 0 0 0 0 0 0 0 0 0 0 0 0 0 0 0 0 0 0 0 0 0 0 0 0 0 0 0 0 0 0 0 0 0
0 0 0 0 0 0 0 0 0 0 0 0 0 0 0 0 0 0 0 0 0 0 0 0 0 0 0 0 0 0 0 0 0 0 0 0 0 0 0 0 0 0 0
0 0 0 0 0 0 0 0 0 0 0 0 0 0 0 0 0 0 0 0 0 0 0 0 0 0 0 0 0 0 0 0 0 0 0 0 0 0 0 0 0 0 0
0 0 0 0 0 0 0 0 0 0 0 0 0 0 0 0 0 0 0 0 0 0 0 0 0 0 0 0 0 0 0 0 0 0 0 0 0 0 0 0 0 0 0

GEFSGL_con_cape1000_378.txt.gz
Probability
32 29 23 23 26 32 35 39 42 39 39 32 35 35 35 35 35 35 29 35 32 35 35 35 42 32 29 26 26 26 19 23 23 16 10 10 19 19 13 23 23 23 16
35 35 26 29 26 26 32 35 35 39 35 35 32 39 39 32 35 32 29 29 32 32 32 35 39 35 26 23 26 26 23 26 23 16 16 13 19 19 23 26 19 16 19
35 32 32 35 35 35 35 35 35 32 32 29 29 32 32 29 32 32 29 29 32 35 29 26 26 26 26 16 19 16 16 16 26 13 16 16 10 16 23 26 16 29 16
32 32 35 35 32 35 39 35 32 29 29 29 32 26 23 23 23 23 23 23 19 19 23 23 26 16 16 26 16 19 13 13 13 16 19 16 16 10 19 16 16 23 19
39 42 39 35 29 26 23 23 23 26 23 23 29 29 23 23 23 19 19 16 19 19 19 19 16 10 6 6 10 16 10 13 13 16 10 10 6 19 13 10 13 13 16
39 35 35 32 29 26 23 23 23 23 16 16 19 19 19 13 3 3 6 16 19 23 19 13 13 10 10 3 0 0 3 13 13 13 13 13 13 13 16 10 10 13 19
32 32 29 26 23 23 13 13 13 16 16 16 16 13 10 6 3 3 0 10 10 16 16 16 10 10 6 13 3 0 0 0 3 13 13 10 13 10 6 10 23 16 16
26 26 23 26 23 23 16 16 16 16 16 16 13 10 16 3 0 0 0 0 6 3 6 6 10 6 3 3 6 16 13 13 13 3 6 13 13 10 6 10 13 13 19
26 26 26 26 19 19 16 16 16 13 13 10 10 6 6 0 0 0 0 0 0 0 3 6 6 10 3 0 10 10 10 10 3 3 3 6 0 0 0 10 10 10 10
26 26 23 23 23 19 16 16 13 19 6 6 3 3 0 0 0 0 0 0 0 3 3 3 0 0 0 0 6 10 10 10 6 6 6 3 3 0 0 0 3 6 13
23 23 23 23 23 19 23 23 16 6 6 3 0 0 0 0 0 0 0 0 0 3 0 0 3 0 0 0 0 6 6 6 3 3 6 6 10 13 3 6 10 6 6
19 23 19 23 10 10 19 16 13 16 10 10 6 0 0 0 0 0 0 0 0 0 0 0 3 0 0 0 0 0 0 3 3 3 3 10 13 13 10 6 10 10 16
19 16 16 16 13 13 13 10 13 16 6 3 3 3 3 0 0 0 0 0 0 0 0 0 0 0 0 0 0 0 0 3 3 3 3 3 0 0 6 13 13 13 10
23 19 19 13 13 10 13 10 10 10 6 6 10 6 6 6 0 0 0 0 0 0 0 0 0 0 0 0 0 0 3 6 3 3 3 0 0 3 6 10 13 10 10
23 23 19 13 13 19 10 13 10 13 10 10 6 6 6 6 3 0 3 0 0 0 0 0 0 0 0 3 0 3 3 3 3 0 0 3 0 3 3 3 6 3 3
19 16 19 19 16 10 6 3 0 0 0 0 0 0 3 0 0 0 0 0 0 0 0 0 0 0 3 0 3 6 3 0 0 3 0 0 0 0 3 3 3 3 3
16 16 10 6 3 6 3 3 3 0 0 0 0 0 0 0 0 0 0 0 0 0 0 3 0 3 6 6 0 3 3 3 0 0 0 0 0 0 3 3 3 3 10
16 13 10 16 10 3 6 6 6 3 0 0 0 0 0 0 0 0 0 0 0 0 0 0 0 3 3 3 3 3 3 3 0 0 0 0 0 0 0 0 0 0 3
10 16 13 10 6 3 3 3 6 6 3 3 3 0 0 0 0 0 0 0 3 0 0 0 0 0 3 3 3 0 3 0 0 0 0 0 0 0 0 0 0 0 0
23 6 6 3 3 3 3 3 3 6 3 3 3 0 0 0 0 0 0 0 0 0 0 0 0 0 3 3 0 0 0 0 0 0 0 0 0 0 0 0 0 0 0
10 3 0 3 6 3 3 3 3 0 0 0 0 0 0 0 0 0 0 0 0 0 0 0 0 0 0 0 0 0 0 0 0 0 0 0 0 0 0 0 0 0 0
10 6 3 3 3 6 3 3 3 3 0 0 3 0 0 0 0 0 0 0 0 0 3 3 0 0 0 0 0 0 0 0 0 0 0 0 0 0 0 0 0 0 0
13 6 6 3 6 3 3 3 3 3 0 0 0 0 0 0 0 0 0 0 0 0 0 0 0 0 0 0 0 0 0 0 0 0 0 0 3 3 3 0 0 0 0
6 3 6 6 0 3 3 3 3 0 0 0 0 0 0 3 0 0 0 0 0 3 0 0 0 0 0 0 0 0 0 0 0 0 3 3 3 3 3 3 3 0 0
3 3 3 6 0 3 3 3 3 0 0 0 0 0 0 0 0 0 0 0 0 3 3 0 0 0 0 0 0 3 0 0 0 0 3 3 3 3 3 3 3 0 0
6 6 0 0 0 0 3 3 0 0 0 3 3 0 0 0 0 0 0 0 0 0 3 3 3 3 0 3 3 0 0 0 0 0 0 3 0 0 0 0 0 0 0

GEFSGL_con_cape1000_384.txt.gz
Probability
42 35 42 42 39 39 42 39 35 39 39 39 42 39 39 35 39 39 35 42 42 45 42 42 42 39 39 35 32 35 32 39 29 32 26 26 23 23 19 26 23 16 10
35 39 39 42 42 39 39 42 45 39 35 35 39 39 35 35 35 32 32 32 35 45 45 45 45 29 29 32 29 26 29 35 23 23 29 23 29 32 29 29 6 6 10
35 35 35 42 45 39 42 42 45 39 35 35 35 35 35 35 32 32 29 26 26 32 45 45 35 29 32 32 26 26 26 10 23 23 16 16 16 16 10 13 13 16 3
39 39 39 42 42 42 42 42 42 32 32 32 29 29 32 32 32 29 26 29 32 29 26 29 32 29 29 26 19 23 19 16 19 23 19 13 19 19 10 10 13 19 6
42 42 39 45 42 42 42 42 32 26 26 29 29 26 26 19 13 13 16 16 26 32 26 23 19 13 6 6 6 10 19 23 23 19 16 13 10 10 6 6 0 6 13
48 42 45 45 48 42 42 32 32 32 32 29 26 23 19 6 3 3 3 13 19 23 13 16 6 6 3 3 3 0 0 16 16 16 13 13 13 10 6 3 3 6 3
48 45 42 45 45 42 26 39 29 29 29 26 23 19 16 10 3 0 3 10 13 16 13 13 3 0 3 3 0 0 0 0 0 10 16 13 10 13 10 3 6 10 6
48 48 42 39 39 39 35 29 32 32 32 29 26 19 19 3 0 0 0 6 16 13 6 6 6 3 0 3 3 6 10 6 3 0 16 10 6 13 13 3 6 3 10
39 45 42 39 35 35 32 32 29 26 26 26 23 23 16 6 0 0 0 3 10 6 6 6 6 3 0 3 3 6 6 10 3 0 3 3 3 3 0 0 3 3 3
39 45 45 42 42 39 35 32 32 29 26 26 26 23 19 13 0 0 0 3 10 3 6 3 3 3 0 0 6 10 3 10 10 3 3 0 3 3 3 3 3 3 3
42 45 42 42 39 39 35 29 35 29 29 26 26 23 16 6 0 0 0 0 0 3 6 3 3 0 0 0 0 6 6 6 10 10 10 10 6 6 6 6 10 6 3
48 48 42 45 35 26 39 32 29 29 26 26 19 16 19 3 0 0 0 0 0 3 6 3 3 0 0 0 0 0 0 0 10 6 3 6 6 3 3 0 13 6 6
48 42 45 45 42 32 29 32 29 32 26 19 16 16 16 10 0 0 0 0 0 0 3 0 0 0 0 0 0 0 0 3 6 10 6 3 10 10 6 6 6 10 10
48 45 45 42 42 35 29 26 26 29 23 23 13 13 13 10 6 0 0 0 0 0 0 0 0 0 0 0 0 0 0 0 3 3 6 6 6 0 3 6 6 10 6
45 42 45 35 29 32 26 23 16 23 13 10 6 10 10 6 6 0 3 3 0 0 3 3 0 0 0 3 3 3 3 3 3 3 6 6 0 3 3 6 6 6 6
32 32 26 26 23 23 19 10 0 0 0 0 0 0 0 0 0 0 0 0 0 0 0 3 6 6 0 0 0 3 3 3 3 3 6 6 0 0 0 0 3 3 6
39 32 29 23 26 19 16 19 13 3 0 0 0 0 0 0 0 0 0 0 0 0 0 3 6 6 3 0 0 3 3 6 6 3 10 6 3 3 3 6 6 3 3
32 19 23 26 19 16 16 10 10 10 6 6 0 0 0 0 0 0 0 0 0 0 0 3 3 3 3 6 3 3 10 6 6 6 6 3 0 6 0 3 3 0 3
23 26 19 16 10 6 10 10 6 10 10 6 10 0 0 0 0 0 0 0 0 3 0 3 3 3 3 3 3 10 6 6 6 10 6 6 3 3 3 0 0 0 0
23 16 13 19 10 10 6 6 6 6 10 10 6 6 0 0 0 0 0 0 0 0 3 3 3 3 3 3 6 6 6 6 6 6 6 6 3 0 3 3 0 0 0
23 19 6 10 10 10 10 10 6 10 6 6 6 3 0 0 0 0 3 0 0 0 0 6 3 3 3 3 6 6 3 6 6 6 3 3 3 0 0 3 3 0 0
23 19 13 13 10 6 6 10 10 10 6 10 13 6 0 0 0 0 0 0 0 0 0 3 3 3 3 3 3 3 3 3 6 6 6 3 3 0 0 3 0 0 0
10 10 3 6 10 6 6 10 10 10 13 10 10 3 0 0 0 3 0 0 0 0 0 0 0 0 3 3 3 3 3 3 6 3 0 0 3 0 0 3 3 0 0
6 6 6 6 10 10 10 10 10 10 10 10 10 3 0 3 3 3 0 0 0 0 3 3 0 0 6 6 6 6 3 3 3 3 3 3 3 3 3 0 0 0 0
6 6 3 10 6 10 10 10 10 10 6 6 6 0 0 3 0 3 0 0 3 0 3 3 3 6 6 6 6 3 0 0 0 0 3 3 3 3 3 3 3 3 0
6 6 6 3 3 3 3 3 3 6 10 3 0 0 0 0 0 0 0 0 0 0 0 0 0 3 3 3 3 0 0 0 0 0 0 3 3 3 3 3 3 0 0